Simultaneous Nadir Overpasses (SNOs) Predictions

Prediction of SNOs between TERRA and METOP-C Satellite Orbit:

Table of predicted SNOs for the next 14.0 days since TLE Epoch: 11/19/2022
Index Date (TERRA) Time (TERRA) Lat,Lon (TERRA) SZA (TERRA ) Date (METOP-C) Time (METOP-C) Lat,Lon (METOP-C) SZA (METOP-C ) Distance(km) Time Diff (sec)
1 11/20/2022 22:21:59 81.00,-118.56 102.87 11/20/2022 22:21:20 80.99,-118.66 102.84 1.91 39
2 11/20/2022 23:11:22 -81.02, 49.37 77.09 11/20/2022 23:12:00 -81.02, 49.26 77.08 1.78 38
3 11/23/2022 14:33:42 80.99, -1.53 103.41 11/23/2022 14:33:00 80.99, -1.68 103.38 2.75 42
4 11/23/2022 15:23:05 -81.02, 166.41 76.54 11/23/2022 15:23:39 -81.03, 166.58 76.50 3.05 34
5 11/26/2022 06:45:25 80.99, 115.39 103.90 11/26/2022 06:44:40 80.98, 115.26 103.86 2.31 45
6 11/26/2022 07:34:48 -81.01, -76.65 76.05 11/26/2022 07:35:19 -81.02, -76.51 76.02 2.55 31
7 11/28/2022 22:57:08 80.97,-127.78 104.32 11/28/2022 22:56:20 80.97,-127.83 104.30 0.88 48
8 11/28/2022 23:46:30 -81.02, 40.54 75.58 11/28/2022 23:46:58 -81.02, 40.72 75.54 3.23 28
9 12/01/2022 15:08:49 80.97, -10.71 104.73 12/01/2022 15:07:58 80.98, -10.59 104.72 2.21 51



Historial Predications of SNOs between TERRA and METOP-C
